| time (UTC) | temp F | wind direction | speed MPH | gust MPH | rain 1hr in | rain 24hr in | rain mn in | humidity % | barometer mb |
| 20260504110504 | 56 | 189 | 1.0 | 5.0 | 0.00 | 0.00 | 0.00 | 82 | 1008.4 |
| 20260504100504 | 60 | 183 | 1.0 | 3.0 | 0.00 | 0.00 | 0.00 | 77 | 1007.7 |
| 20260504082004 | 66 | 138 | 1.0 | 4.0 | 0.00 | 0.00 | 0.00 | 62 | 1007.0 |
| 20260504081505 | 66 | 127 | 1.0 | 4.0 | 0.00 | 0.00 | 0.00 | 62 | 1006.9 |
| 20260504081003 | 66 | 129 | 1.0 | 2.0 | 0.00 | 0.00 | 0.00 | 61 | 1006.9 |
| 20260504080503 | 66 | 131 | 0.0 | 2.0 | 0.00 | 0.00 | 0.00 | 61 | 1006.8 |
| 20260504050503 | 78 | 0 | 0.0 | 0.0 | 0.00 | 0.00 | 0.00 | 39 | 1005.7 |
| 20260504050003 | 78 | 0 | 0.0 | 0.0 | 0.00 | 0.00 | 0.00 | 38 | 1005.6 |
| 20260504045525 | 78 | 336 | 0.0 | 1.0 | 0.00 | 0.00 | 0.00 | 38 | 1005.6 |
| 20260504045003 | 78 | 360 | 0.0 | 3.0 | 0.00 | 0.00 | 0.00 | 38 | 1005.6 |
| 20260504044504 | 79 | 346 | 1.0 | 4.0 | 0.00 | 0.00 | 0.00 | 38 | 1005.5 |
| 20260504044003 | 79 | 342 | 1.0 | 4.0 | 0.00 | 0.00 | 0.00 | 38 | 1005.5 |
| 20260504043503 | 79 | 342 | 1.0 | 4.0 | 0.00 | 0.00 | 0.00 | 37 | 1005.5 |
| 20260504043004 | 79 | 340 | 1.0 | 4.0 | 0.00 | 0.00 | 0.00 | 38 | 1005.5 |
| 20260504042504 | 79 | 339 | 1.0 | 4.0 | 0.00 | 0.00 | 0.00 | 38 | 1005.4 |
| 20260504042004 | 80 | 333 | 1.0 | 4.0 | 0.00 | 0.00 | 0.00 | 37 | 1005.4 |
| 20260504041504 | 80 | 319 | 1.0 | 4.0 | 0.00 | 0.00 | 0.00 | 37 | 1005.3 |
| 20260504041004 | 80 | 300 | 0.0 | 2.0 | 0.00 | 0.00 | 0.00 | 37 | 1005.3 |
| 20260504040524 | 81 | 324 | 0.0 | 2.0 | 0.00 | 0.00 | 0.00 | 37 | 1005.2 |
| 20260504040004 | 81 | 342 | 0.0 | 5.0 | 0.00 | 0.00 | 0.00 | 36 | 1005.2 |
| 20260504035504 | 81 | 343 | 1.0 | 5.0 | 0.00 | 0.00 | 0.00 | 36 | 1005.2 |
| 20260504035025 | 82 | 335 | 1.0 | 5.0 | 0.00 | 0.00 | 0.00 | 35 | 1005.1 |
| 20260504034504 | 82 | 321 | 1.0 | 5.0 | 0.00 | 0.00 | 0.00 | 35 | 1005.1 |
| 20260504034004 | 82 | 315 | 1.0 | 5.0 | 0.00 | 0.00 | 0.00 | 35 | 1005.0 |
| 20260504033504 | 82 | 321 | 1.0 | 3.0 | 0.00 | 0.00 | 0.00 | 34 | 1004.9 |
| 20260504033004 | 83 | 327 | 1.0 | 5.0 | 0.00 | 0.00 | 0.00 | 33 | 1004.9 |
| 20260504032503 | 83 | 322 | 2.0 | 5.0 | 0.00 | 0.00 | 0.00 | 33 | 1004.9 |
| 20260504032004 | 83 | 312 | 1.0 | 5.0 | 0.00 | 0.00 | 0.00 | 32 | 1004.9 |
| 20260504031524 | 84 | 313 | 1.0 | 5.0 | 0.00 | 0.00 | 0.00 | 32 | 1004.8 |
| 20260504031004 | 84 | 300 | 1.0 | 6.0 | 0.00 | 0.00 | 0.00 | 32 | 1004.7 |
| 20260504030504 | 84 | 299 | 1.0 | 6.0 | 0.00 | 0.00 | 0.00 | 32 | 1004.7 |
| 20260504030004 | 85 | 311 | 0.0 | 3.0 | 0.00 | 0.00 | 0.00 | 32 | 1004.8 |
| 20260504025503 | 85 | 320 | 0.0 | 3.0 | 0.00 | 0.00 | 0.00 | 31 | 1004.7 |
| 20260504025005 | 86 | 333 | 0.0 | 3.0 | 0.00 | 0.00 | 0.00 | 31 | 1004.6 |
| 20260504024503 | 86 | 318 | 0.0 | 3.0 | 0.00 | 0.00 | 0.00 | 30 | 1004.7 |
| 20260504024003 | 86 | 325 | 1.0 | 5.0 | 0.00 | 0.00 | 0.00 | 30 | 1004.6 |
| 20260504023503 | 86 | 330 | 1.0 | 5.0 | 0.00 | 0.00 | 0.00 | 30 | 1004.6 |
| 20260504023002 | 87 | 330 | 1.0 | 5.0 | 0.00 | 0.00 | 0.00 | 29 | 1004.6 |
| 20260504022502 | 87 | 322 | 1.0 | 4.0 | 0.00 | 0.00 | 0.00 | 29 | 1004.6 |
| 20260504022003 | 87 | 313 | 1.0 | 4.0 | 0.00 | 0.00 | 0.00 | 28 | 1004.7 |
| 20260504021502 | 88 | 313 | 1.0 | 4.0 | 0.00 | 0.00 | 0.00 | 28 | 1004.6 |
| 20260504021024 | 88 | 321 | 1.0 | 7.0 | 0.00 | 0.00 | 0.00 | 28 | 1004.7 |
| 20260504020502 | 88 | 315 | 1.0 | 7.0 | 0.00 | 0.00 | 0.00 | 27 | 1004.7 |
| 20260504020002 | 88 | 303 | 1.0 | 4.0 | 0.00 | 0.00 | 0.00 | 27 | 1004.7 |
| 20260504015502 | 89 | 305 | 1.0 | 4.0 | 0.00 | 0.00 | 0.00 | 27 | 1004.8 |
| 20260504015002 | 89 | 311 | 1.0 | 9.0 | 0.00 | 0.00 | 0.00 | 27 | 1004.7 |
| 20260504014502 | 89 | 321 | 1.0 | 9.0 | 0.00 | 0.00 | 0.00 | 26 | 1004.8 |
| 20260504014004 | 90 | 323 | 1.0 | 4.0 | 0.00 | 0.00 | 0.00 | 26 | 1004.7 |
| 20260504013503 | 90 | 309 | 1.0 | 7.0 | 0.00 | 0.00 | 0.00 | 25 | 1004.7 |
| 20260504013004 | 90 | 306 | 1.0 | 7.0 | 0.00 | 0.00 | 0.00 | 25 | 1004.8 |
| 20260504012502 | 91 | 318 | 1.0 | 5.0 | 0.00 | 0.00 | 0.00 | 25 | 1004.8 |
| 20260504012002 | 91 | 309 | 1.0 | 4.0 | 0.00 | 0.00 | 0.00 | 25 | 1004.8 |
| 20260504011523 | 92 | 313 | 2.0 | 6.0 | 0.00 | 0.00 | 0.00 | 25 | 1004.9 |
| 20260504011002 | 92 | 324 | 2.0 | 6.0 | 0.00 | 0.00 | 0.00 | 25 | 1004.9 |
| 20260504010503 | 92 | 305 | 2.0 | 6.0 | 0.00 | 0.00 | 0.00 | 24 | 1004.9 |
| 20260504010004 | 92 | 296 | 1.0 | 6.0 | 0.00 | 0.00 | 0.00 | 25 | 1005.0 |
| 20260504005505 | 92 | 308 | 1.0 | 6.0 | 0.00 | 0.00 | 0.00 | 24 | 1005.0 |
| 20260504005002 | 92 | 305 | 1.0 | 6.0 | 0.00 | 0.00 | 0.00 | 25 | 1005.0 |
| 20260504004524 | 92 | 297 | 1.0 | 8.0 | 0.00 | 0.00 | 0.00 | 25 | 1005.1 |
| 20260504004003 | 92 | 295 | 1.0 | 8.0 | 0.00 | 0.00 | 0.00 | 24 | 1005.1 |
| 20260504003502 | 93 | 301 | 1.0 | 5.0 | 0.00 | 0.00 | 0.00 | 24 | 1005.1 |
| 20260504003002 | 93 | 307 | 1.0 | 5.0 | 0.00 | 0.00 | 0.00 | 23 | 1005.1 |
| 20260504002502 | 93 | 317 | 1.0 | 4.0 | 0.00 | 0.00 | 0.00 | 24 | 1005.2 |
| 20260504002002 | 93 | 309 | 1.0 | 4.0 | 0.00 | 0.00 | 0.00 | 24 | 1005.2 |
| 20260504001504 | 93 | 299 | 1.0 | 8.0 | 0.00 | 0.00 | 0.00 | 24 | 1005.2 |
| 20260504001002 | 93 | 299 | 1.0 | 8.0 | 0.00 | 0.00 | 0.00 | 23 | 1005.2 |
| 20260504000502 | 93 | 296 | 1.0 | 5.0 | 0.00 | 0.00 | 0.00 | 23 | 1005.1 |
| 20260504000002 | 93 | 301 | 1.0 | 6.0 | 0.00 | 0.00 | 0.00 | 23 | 1005.1 |
| 20260503235503 | 93 | 305 | 2.0 | 6.0 | 0.00 | 0.00 | 0.00 | 23 | 1005.1 |
| 20260503235002 | 93 | 312 | 2.0 | 6.0 | 0.00 | 0.00 | 0.00 | 23 | 1005.2 |
| 20260503234502 | 93 | 309 | 1.0 | 6.0 | 0.00 | 0.00 | 0.00 | 23 | 1005.2 |
| 20260503234023 | 93 | 297 | 1.0 | 6.0 | 0.00 | 0.00 | 0.00 | 23 | 1005.3 |
| 20260503233502 | 94 | 287 | 1.0 | 6.0 | 0.00 | 0.00 | 0.00 | 22 | 1005.3 |
| 20260503233002 | 94 | 299 | 1.0 | 8.0 | 0.00 | 0.00 | 0.00 | 22 | 1005.4 |
| 20260503232502 | 94 | 310 | 2.0 | 8.0 | 0.00 | 0.00 | 0.00 | 23 | 1005.5 |
| 20260503232002 | 94 | 321 | 1.0 | 8.0 | 0.00 | 0.00 | 0.00 | 23 | 1005.6 |
| 20260503231503 | 94 | 327 | 2.0 | 8.0 | 0.00 | 0.00 | 0.00 | 23 | 1005.6 |
| 20260503231002 | 94 | 333 | 1.0 | 6.0 | 0.00 | 0.00 | 0.00 | 24 | 1005.7 |
| 20260503230502 | 95 | 319 | 1.0 | 4.0 | 0.00 | 0.00 | 0.00 | 24 | 1005.7 |
| 20260503230003 | 95 | 313 | 1.0 | 4.0 | 0.00 | 0.00 | 0.00 | 24 | 1005.9 |
| 20260503225523 | 95 | 321 | 1.0 | 5.0 | 0.00 | 0.00 | 0.00 | 25 | 1005.9 |
| 20260503225002 | 94 | 317 | 2.0 | 6.0 | 0.00 | 0.00 | 0.00 | 25 | 1005.9 |
| 20260503224503 | 94 | 300 | 1.0 | 6.0 | 0.00 | 0.00 | 0.00 | 26 | 1006.0 |
| 20260503224002 | 94 | 293 | 1.0 | 4.0 | 0.00 | 0.00 | 0.00 | 25 | 1006.1 |
| 20260503223502 | 94 | 293 | 1.0 | 4.0 | 0.00 | 0.00 | 0.00 | 27 | 1006.2 |
| 20260503223002 | 94 | 293 | 1.0 | 4.0 | 0.00 | 0.00 | 0.00 | 27 | 1006.2 |
| 20260503222502 | 94 | 308 | 1.0 | 5.0 | 0.00 | 0.00 | 0.00 | 26 | 1006.3 |
| 20260503222002 | 94 | 314 | 1.0 | 6.0 | 0.00 | 0.00 | 0.00 | 28 | 1006.3 |
| 20260503221502 | 94 | 303 | 1.0 | 7.0 | 0.00 | 0.00 | 0.00 | 28 | 1006.5 |
| 20260503221023 | 93 | 292 | 1.0 | 7.0 | 0.00 | 0.00 | 0.00 | 28 | 1006.6 |
| 20260503220503 | 93 | 297 | 1.0 | 3.0 | 0.00 | 0.00 | 0.00 | 28 | 1006.6 |
| 20260503220002 | 93 | 322 | 1.0 | 5.0 | 0.00 | 0.00 | 0.00 | 29 | 1006.8 |
| 20260503215523 | 93 | 335 | 1.0 | 5.0 | 0.00 | 0.00 | 0.00 | 29 | 1006.8 |
| 20260503215002 | 93 | 318 | 1.0 | 4.0 | 0.00 | 0.00 | 0.00 | 29 | 1006.9 |
| 20260503214524 | 92 | 312 | 1.0 | 4.0 | 0.00 | 0.00 | 0.00 | 31 | 1007.0 |
| 20260503214003 | 92 | 327 | 1.0 | 5.0 | 0.00 | 0.00 | 0.00 | 31 | 1007.0 |
| 20260503213502 | 91 | 334 | 1.0 | 5.0 | 0.00 | 0.00 | 0.00 | 30 | 1007.1 |
| 20260503213002 | 91 | 339 | 1.0 | 5.0 | 0.00 | 0.00 | 0.00 | 31 | 1007.1 |
| 20260503212503 | 91 | 327 | 1.0 | 6.0 | 0.00 | 0.00 | 0.00 | 33 | 1007.2 |
| 20260503212003 | 91 | 321 | 1.0 | 6.0 | 0.00 | 0.00 | 0.00 | 32 | 1007.2 |
| 20260503211502 | 90 | 335 | 1.0 | 6.0 | 0.00 | 0.00 | 0.00 | 32 | 1007.3 |
| 20260503211002 | 90 | 322 | 1.0 | 5.0 | 0.00 | 0.00 | 0.00 | 32 | 1007.3 |
| 20260503210503 | 90 | 323 | 1.0 | 3.0 | 0.00 | 0.00 | 0.00 | 35 | 1007.3 |
| 20260503210002 | 89 | 326 | 1.0 | 3.0 | 0.00 | 0.00 | 0.00 | 35 | 1007.4 |
| 20260503205502 | 89 | 321 | 1.0 | 5.0 | 0.00 | 0.00 | 0.00 | 35 | 1007.5 |
| 20260503205002 | 88 | 328 | 1.0 | 7.0 | 0.00 | 0.00 | 0.00 | 35 | 1007.5 |
| 20260503204503 | 88 | 334 | 1.0 | 7.0 | 0.00 | 0.00 | 0.00 | 37 | 1007.6 |
| 20260503204002 | 88 | 330 | 1.0 | 5.0 | 0.00 | 0.00 | 0.00 | 36 | 1007.7 |
| 20260503203502 | 88 | 333 | 1.0 | 4.0 | 0.00 | 0.00 | 0.00 | 36 | 1007.8 |
| 20260503203002 | 88 | 334 | 1.0 | 5.0 | 0.00 | 0.00 | 0.00 | 37 | 1007.8 |
| 20260503202502 | 87 | 337 | 1.0 | 6.0 | 0.00 | 0.00 | 0.00 | 38 | 1007.9 |
| 20260503202002 | 87 | 345 | 1.0 | 6.0 | 0.00 | 0.00 | 0.00 | 38 | 1008.0 |
| 20260503201502 | 87 | 341 | 1.0 | 4.0 | 0.00 | 0.00 | 0.00 | 37 | 1008.0 |
| 20260503201023 | 87 | 340 | 1.0 | 4.0 | 0.00 | 0.00 | 0.00 | 38 | 1008.0 |
| 20260503200502 | 87 | 339 | 1.0 | 5.0 | 0.00 | 0.00 | 0.00 | 37 | 1008.1 |
| 20260503200002 | 86 | 338 | 1.0 | 5.0 | 0.00 | 0.00 | 0.00 | 39 | 1008.1 |
| 20260503195502 | 85 | 334 | 1.0 | 5.0 | 0.00 | 0.00 | 0.00 | 41 | 1008.2 |
| 20260503195002 | 84 | 336 | 1.0 | 5.0 | 0.00 | 0.00 | 0.00 | 41 | 1008.3 |
| 20260503194502 | 84 | 345 | 1.0 | 5.0 | 0.00 | 0.00 | 0.00 | 42 | 1008.3 |
| 20260503194002 | 83 | 343 | 1.0 | 5.0 | 0.00 | 0.00 | 0.00 | 43 | 1008.4 |
| 20260503193502 | 82 | 340 | 1.0 | 4.0 | 0.00 | 0.00 | 0.00 | 42 | 1008.5 |
| 20260503193002 | 82 | 333 | 1.0 | 4.0 | 0.00 | 0.00 | 0.00 | 43 | 1008.5 |
| 20260503192502 | 81 | 331 | 1.0 | 5.0 | 0.00 | 0.00 | 0.00 | 46 | 1008.6 |
| 20260503192003 | 81 | 337 | 1.0 | 5.0 | 0.00 | 0.00 | 0.00 | 45 | 1008.6 |
| 20260503191523 | 80 | 337 | 1.0 | 5.0 | 0.00 | 0.00 | 0.00 | 46 | 1008.6 |
| 20260503191023 | 80 | 336 | 1.0 | 5.0 | 0.00 | 0.00 | 0.00 | 46 | 1008.7 |
| 20260503190502 | 80 | 326 | 1.0 | 4.0 | 0.00 | 0.00 | 0.00 | 47 | 1008.8 |
| 20260503190002 | 79 | 324 | 2.0 | 6.0 | 0.00 | 0.00 | 0.00 | 48 | 1008.9 |
| 20260503185502 | 79 | 338 | 1.0 | 6.0 | 0.00 | 0.00 | 0.00 | 49 | 1009.0 |
| 20260503185002 | 79 | 339 | 1.0 | 4.0 | 0.00 | 0.00 | 0.00 | 49 | 1009.0 |
| 20260503184502 | 78 | 325 | 1.0 | 4.0 | 0.00 | 0.00 | 0.00 | 50 | 1009.1 |
| 20260503184002 | 78 | 328 | 2.0 | 6.0 | 0.00 | 0.00 | 0.00 | 51 | 1009.2 |
| 20260503183502 | 77 | 335 | 1.0 | 6.0 | 0.00 | 0.00 | 0.00 | 52 | 1009.2 |
| 20260503183023 | 77 | 335 | 1.0 | 6.0 | 0.00 | 0.00 | 0.00 | 52 | 1009.2 |
| 20260503182502 | 76 | 328 | 1.0 | 6.0 | 0.00 | 0.00 | 0.00 | 54 | 1009.2 |
| 20260503182002 | 75 | 334 | 1.0 | 6.0 | 0.00 | 0.00 | 0.00 | 56 | 1009.3 |
| 20260503181503 | 74 | 338 | 1.0 | 6.0 | 0.00 | 0.00 | 0.00 | 56 | 1009.3 |
| 20260503181002 | 74 | 335 | 1.0 | 6.0 | 0.00 | 0.00 | 0.00 | 56 | 1009.4 |
| 20260503180502 | 74 | 329 | 1.0 | 5.0 | 0.00 | 0.00 | 0.00 | 56 | 1009.3 |
| 20260503180003 | 74 | 332 | 1.0 | 12.0 | 0.00 | 0.00 | 0.00 | 57 | 1009.4 |
| 20260503175502 | 73 | 341 | 1.0 | 12.0 | 0.00 | 0.00 | 0.00 | 58 | 1009.4 |
| 20260503175002 | 73 | 338 | 1.0 | 5.0 | 0.00 | 0.00 | 0.00 | 59 | 1009.4 |
| 20260503174502 | 73 | 336 | 1.0 | 3.0 | 0.00 | 0.00 | 0.00 | 58 | 1009.5 |
| 20260503174002 | 72 | 334 | 1.0 | 3.0 | 0.00 | 0.00 | 0.00 | 60 | 1009.5 |
| 20260503173502 | 72 | 331 | 1.0 | 3.0 | 0.00 | 0.00 | 0.00 | 60 | 1009.5 |
| 20260503173002 | 71 | 333 | 1.0 | 3.0 | 0.00 | 0.00 | 0.00 | 62 | 1009.4 |
| 20260503172523 | 71 | 332 | 1.0 | 3.0 | 0.00 | 0.00 | 0.00 | 62 | 1009.6 |
| 20260503172023 | 70 | 334 | 1.0 | 6.0 | 0.00 | 0.00 | 0.00 | 63 | 1009.6 |
| 20260503171502 | 70 | 336 | 1.0 | 6.0 | 0.00 | 0.00 | 0.00 | 64 | 1009.6 |
| 20260503171002 | 70 | 338 | 1.0 | 6.0 | 0.00 | 0.00 | 0.00 | 64 | 1009.6 |
| 20260503170502 | 69 | 339 | 1.0 | 5.0 | 0.00 | 0.00 | 0.00 | 66 | 1009.7 |
| 20260503151002 | 58 | 331 | 1.0 | 6.0 | 0.00 | 0.00 | 0.00 | 89 | 1010.1 |
| 20260503150502 | 58 | 337 | 1.0 | 5.0 | 0.00 | 0.00 | 0.00 | 89 | 1010.1 |
| 20260503131002 | 54 | 320 | 0.0 | 5.0 | 0.00 | 0.00 | 0.00 | 94 | 1009.7 |
| 20260503130502 | 54 | 323 | 1.0 | 4.0 | 0.00 | 0.00 | 0.00 | 93 | 1009.7 |